Starlink 36150

operational
NORAD ID: 67031 Int'l Des: 2025-294 Owner: SPXS Country: US Constellation: starlink
NOTLE

Über Starlink 36150

Beschreibung wird geladen...

Live-Position

3D-Globus wird geladen...

Nächste Überflüge

Höhenverlauf

Altitude vs Time

uPlot chart will show altitude changes over time

Zweizeiliger Elementsatz

1 67031C 25294B 25346.87756944 .01018500 00000+0 14796-2 0 3468
2 67031 43.0024 182.4974 0009123 285.0098 336.7866 16.03148342 16
Epoch: 12. Dez. 2025 • Age: 57 hours

Aktueller Status

Höhe 254.9 km
Geschwindigkeit 7.76 km/s
Subsatellitenpunkt 8.00°N, 42.29°W
Startdatum 11. Dez. 2025
Alter 2 days
Typ internet

Technische Details

Klassifizierung Payload
Masse 575.00 kg
Trockenmasse 530.00 kg
Gesamtmasse 575.00 kg
Länge 0.30 m
Durchmesser 4.10 m
Spannweite 29.00 m
Form Box + pan
Hersteller SPXS
Bus-Typ Starlink V2MO
Phasenstatus In Orbit
Besitzer/Staat SPXS/US

Große Konstellationen

Loading constellations...